Weather in Ambarniy

Russia / Republic of Karelia     65°53′45″N   33°43′04″E
temp.,
°C
wind,
m/s
gust,
m/s
humid.,
%
clouds,
%
prec.,
mm/h
press.,
hPa
HPBL,
m
27 february, sat
sat2700:00−6nnw239687 0.0 100344
03:00−7nw239784 0.0 100671
06:00−8nnw369637 0.0 1007129
09:00−7nw369420 0.0 1011110
12:00−3nw379320 0.0 1012292
15:00−1wnw259210 0.0 1013359
18:00−5w35950 0.0 101290
21:00−7w23950 0.0 101265
28 february, sun
sun2800:00−8w239356 0.0 101037
03:00−6sw228978 0.0 101030
06:00−6sw239199 0.0 100885
09:00−7sw259598 0.0 1009124
12:00−3wsw3596100 0.0 1009269
15:00−1w369592 0.0 1009331
18:00−2w389526 0.0 1009194
21:00−2wsw389135 0.0 1009159
1 march, mon
mon100:000wsw51091100 0.0 1007321
03:000wsw6129399 0.0 1005415
06:00+2wsw61497100 0.0 1002619
09:00+1w51386100 0.0 1001580
12:00+1w51297100 0.0 999574
15:00+1w5129083 0.0 999778
18:000w5138424 0.0 997533
21:00−1w5149162 0.3 997830
2 march, tue
tue200:00−2wnw5158648 0.0 997713
03:00−2wnw6158459 0.0 998818
06:00−3nw6148547 0.0 999691
09:00−4nw5148024 0.0 1002664
12:00−2nw714810 0.0 10041116
15:00−1nw612828 0.0 10051245
18:00−2wnw5139382 0.0 1006680
21:00−3wnw4138872 0.1 1007756
3 march, wed
wed300:00−5nw5138336 0.0 1009408
03:00−8nw4118819 0.0 1011335
06:00−10wnw39890 0.0 1011177
09:00−8w411910 0.0 1010275
12:00−3w511863 0.0 1008580
15:00−3w49881 0.0 1006532
18:00−5sw369067 0.0 1003117
21:00−4s379683 0.3 997255